Location: Rowland
(34.5359°N, 79.2929°W)
Time: 22:30:12
(UTC+00:00)

A-11 Canister half - Pass Details

Date: 09 October 2022
Orbit: 1516 x 1684 km, 47.2° (Epoch: 28 November)

Event Time Altitude Azimuth Distance (km) Brightness Sun altitude
Rises 03:21:44 0° 289° (WNW) 4,809 12.1 -53.1°
Reaches altitude 10° 03:25:14 10° 297° (WNW) 3,798 11.4 -53.6°
Enters shadow 03:29:40 26° 318° (NW) 2,702 10.5 -54.2°
